Location: Newark
(49.3000°N, 9.4667°E)
Time: 14:58:38
(UTC+00:00)

Tiros 1 - Pass Details

Date: 28 May 2019
Orbit: 631 x 664 km, 48.4° (Epoch: 25 June)

Event Time Altitude Azimuth Distance (km) Brightness Sun altitude
Rises 14:04:13 0° 282° (WNW) 2,948 11.0 47.2°
Reaches altitude 10° 14:06:54 10° 268° (W) 2,042 10.6 46.8°
Maximum altitude 14:10:37 23° 216° (SW) 1,358 9.9 46.3°
Drops below altitude 10° 14:14:21 10° 164° (SSE) 2,051 9.9 45.7°
Sets 14:17:04 0° 150° (SSE) 2,965 10.5 45.3°
